SCP
0 0 0 0 0 0 0 0 0 0 0 0 0 0 0 0 0 0 0 0 0 0
0 0 0 0 0 0 0 0 0 0 0 0 0 0 0 0 0 0 0 0 0 0
0 0 0 0 0 0 0 0 0 0 0 0 0 0 0 0 0 0 0 0 0 0
0 0 0 0 0 0 0 0 0 0 0 0 0 0 0 0 0 0 0 0 0 0
0 0 0 0 0 0 0 0 0 0 0 0 0 0 0 0 0 0 0 0 0 0
0 0 0 0 0 0 0 0 0 0 0 0 0 0 0 0 0 0 0 0 0 0
0 0 0 0 0 0 0 0 0 0 0 0 0 0 0 0 0 0 0 0 0 0
0 0 0 0 0 0 0 0 0 0 0 0 0 0 0 0 0 0 0 0 0 0
0 0 0 0 0 0 0 0 0 0 0 0 0 0 0 0 0 0 0 0 0 0
0 0 0 0 0 0 0 0 0 0 0 0 0 0 0 0 0 0 0 0 0 0
0 0 0 0 0 0 0 0 0 0 0 0 0 0 0 0 0 0 0 0 0 0
0 0 0 0 0 0 0 0 0 0 0 0 0 0 0 0 0 0 0 0 0 0
0 0 0 0 0 0 0 0 0 0 0 0 0 0 0 0 0 0 0 0 0 0
0 0 0 0 0 0 0 0 0 0 0 0 0 0 0 0 0 0 0 0 0 0
Wind_Speed_500mb
57 63 68 71 74 78 77 72 66 65 68 85 91 95 95 92 88 107 88 83 103 101
38 47 54 59 65 71 71 69 64 63 64 71 91 92 91 84 95 103 79 93 89 102
19 28 37 46 55 61 65 67 65 61 61 64 70 82 82 86 86 82 96 84 96 91
17 25 33 40 46 52 57 62 60 55 52 52 58 71 78 79 85 85 79 90 87 85
28 31 37 41 42 47 52 53 54 52 52 52 56 61 66 78 70 76 80 88 78 83
42 45 49 49 50 48 47 49 54 56 57 56 55 52 56 64 68 70 77 74 80 79
50 54 58 59 59 56 50 49 53 56 55 55 54 55 58 61 64 67 68 72 70 69
60 61 65 67 66 64 57 52 52 55 55 54 56 55 57 61 64 67 68 66 64 64
66 67 67 66 66 67 60 57 55 55 55 56 55 53 57 59 60 61 62 62 60 56
68 69 66 63 66 66 63 61 59 57 56 55 50 54 56 57 57 55 55 55 53 55
56 59 58 60 62 62 62 62 59 57 56 54 50 55 55 53 49 48 49 49 49 50
56 56 54 57 58 58 59 59 58 56 54 53 50 54 55 53 48 44 44 45 47 49
52 52 51 48 49 52 54 53 52 49 51 49 47 47 46 46 44 46 48 48 45 48
48 44 44 44 44 44 48 49 48 48 50 49 47 43 43 40 41 47 52 53 64 70
Wind_Direction_500mb
253 255 257 257 260 262 262 262 259 259 251 240 242 244 248 244 250 249 250 255 250 247
255 260 262 262 261 262 263 263 261 259 256 250 239 242 246 247 254 246 252 257 256 257
269 270 269 267 266 266 265 263 263 260 258 256 241 239 245 250 247 250 257 258 252 252
299 286 281 275 269 265 266 266 264 262 259 254 242 241 244 250 248 250 256 255 254 254
295 297 289 285 279 269 266 266 266 260 254 250 246 246 246 248 250 253 253 258 257 259
302 302 296 285 282 275 271 267 262 258 256 252 249 245 244 245 248 253 256 254 258 252
288 294 288 281 277 275 271 267 260 256 255 252 249 250 246 247 250 252 251 254 251 253
282 279 279 276 274 272 268 269 262 254 250 248 249 250 250 250 255 253 252 250 248 247
286 282 278 274 270 270 268 268 264 257 252 248 249 251 251 251 252 251 246 242 242 241
286 281 278 273 269 267 266 265 261 255 251 249 252 251 251 251 252 250 248 245 240 231
287 282 276 270 267 265 262 260 259 253 250 249 249 250 250 249 248 244 243 238 233 227
285 280 276 272 270 266 262 258 255 250 244 244 244 247 247 246 245 240 233 227 223 217
293 288 281 275 268 263 260 258 253 248 245 246 245 246 246 245 238 230 221 212 207 206
296 290 282 274 266 261 255 253 249 244 243 243 241 239 238 239 234 226 221 210 198 196
Wind_Speed_850mb
57 63 68 71 74 78 77 72 66 65 68 85 91 95 95 92 88 107 88 83 103 101
38 47 54 59 65 71 71 69 64 63 64 71 91 92 91 84 95 103 79 93 89 102
19 28 37 46 55 61 65 67 65 61 61 64 70 82 82 86 86 82 96 84 96 91
17 25 33 40 46 52 57 62 60 55 52 52 58 71 78 79 85 85 79 90 87 85
28 31 37 41 42 47 52 53 54 52 52 52 56 61 66 78 70 76 80 88 78 83
42 45 49 49 50 48 47 49 54 56 57 56 55 52 56 64 68 70 77 74 80 79
50 54 58 59 59 56 50 49 53 56 55 55 54 55 58 61 64 67 68 72 70 69
60 61 65 67 66 64 57 52 52 55 55 54 56 55 57 61 64 67 68 66 64 64
66 67 67 66 66 67 60 57 55 55 55 56 55 53 57 59 60 61 62 62 60 56
68 69 66 63 66 66 63 61 59 57 56 55 50 54 56 57 57 55 55 55 53 55
56 59 58 60 62 62 62 62 59 57 56 54 50 55 55 53 49 48 49 49 49 50
56 56 54 57 58 58 59 59 58 56 54 53 50 54 55 53 48 44 44 45 47 49
52 52 51 48 49 52 54 53 52 49 51 49 47 47 46 46 44 46 48 48 45 48
48 44 44 44 44 44 48 49 48 48 50 49 47 43 43 40 41 47 52 53 64 70
Wind_Direction_850mb
253 255 257 257 260 262 262 262 259 259 251 240 242 244 248 244 250 249 250 255 250 247
255 260 262 262 261 262 263 263 261 259 256 250 239 242 246 247 254 246 252 257 256 257
269 270 269 267 266 266 265 263 263 260 258 256 241 239 245 250 247 250 257 258 252 252
299 286 281 275 269 265 266 266 264 262 259 254 242 241 244 250 248 250 256 255 254 254
295 297 289 285 279 269 266 266 266 260 254 250 246 246 246 248 250 253 253 258 257 259
302 302 296 285 282 275 271 267 262 258 256 252 249 245 244 245 248 253 256 254 258 252
288 294 288 281 277 275 271 267 260 256 255 252 249 250 246 247 250 252 251 254 251 253
282 279 279 276 274 272 268 269 262 254 250 248 249 250 250 250 255 253 252 250 248 247
286 282 278 274 270 270 268 268 264 257 252 248 249 251 251 251 252 251 246 242 242 241
286 281 278 273 269 267 266 265 261 255 251 249 252 251 251 251 252 250 248 245 240 231
287 282 276 270 267 265 262 260 259 253 250 249 249 250 250 249 248 244 243 238 233 227
285 280 276 272 270 266 262 258 255 250 244 244 244 247 247 246 245 240 233 227 223 217
293 288 281 275 268 263 260 258 253 248 245 246 245 246 246 245 238 230 221 212 207 206
296 290 282 274 266 261 255 253 249 244 243 243 241 239 238 239 234 226 221 210 198 196